Date,TemperatureHighF,TemperatureAvgF,TemperatureLowF,DewpointHighF,DewpointAvgF,DewpointLowF,HumidityHigh,HumidityAvg,HumidityLow,PressureMaxIn,PressureMinIn,WindSpeedMaxMPH,WindSpeedAvgMPH,GustSpeedMaxMPH,PrecipitationSumIn
2014-1-1,17,15,12,9,7,4,75,72,68,30.44,30.30,8,4,13,0.00
2014-1-2,19,12,-3,7,-1,-16,73,56,30,30.48,30.22,11,5,17,0.00
2014-1-3,17,8,-7,2,-7,-17,61,49,41,30.56,30.14,13,5,33,0.00
2014-1-4,32,26,17,28,14,1,91,62,46,30.14,30.01,21,10,35,0.00
2014-1-5,30,26,16,28,22,11,91,87,78,30.13,29.93,15,3,36,0.00
2014-1-6,16,-2,-12,10,-12,-23,78,63,55,30.30,30.00,24,15,33,0.30
2014-1-7,4,-4,-11,-13,-16,-23,62,55,41,30.44,30.28,21,10,28,0.00
2014-1-8,19,2,-12,7,-9,-24,68,58,48,30.63,30.42,8,2,11,0.00
2014-1-9,24,9,-4,18,1,-14,80,67,56,30.66,30.34,6,2,14,0.00
2014-1-10,44,34,24,42,31,18,95,89,79,30.34,29.72,14,4,26,0.46
2014-1-11,43,37,34,41,34,26,96,87,74,29.88,29.55,16,9,24,0.07
2014-1-12,44,34,29,29,26,24,82,72,55,30.06,29.82,19,8,27,0.00
2014-1-13,48,42,33,35,31,26,81,66,55,29.88,29.69,16,9,24,0.00
2014-1-14,38,30,24,30,21,13,88,69,44,29.93,29.77,30,10,40,0.04
2014-1-15,26,21,14,19,12,4,83,69,51,30.18,29.93,21,9,29,0.00
2014-1-16,31,24,15,28,18,5,91,76,62,30.05,29.67,16,8,26,0.00
2014-1-17,27,19,14,16,10,2,80,66,57,30.08,29.79,14,8,19,0.00
2014-1-18,20,16,14,11,7,2,75,67,52,30.06,29.94,12,5,19,0.00
2014-1-19,41,25,15,28,16,6,78,68,55,29.98,29.66,23,10,31,0.04
2014-1-20,41,29,15,28,20,4,78,69,60,30.17,29.66,18,5,30,0.00
2014-1-21,29,13,6,4,-7,-14,63,40,21,30.36,30.17,10,4,15,0.00
2014-1-22,14,9,4,6,-3,-10,73,58,41,30.30,30.03,14,6,21,0.00
2014-1-23,27,13,7,8,0,-8,72,57,27,30.63,30.15,18,9,29,0.58
2014-1-24,22,8,-8,16,-5,-23,81,55,43,30.62,29.66,27,14,46,0.04
2014-1-25,30,21,13,28,9,-4,90,61,37,29.95,29.49,20,12,34,0.31
2014-1-26,31,18,6,21,7,-8,82,62,32,29.93,29.51,24,9,37,0.71
2014-1-27,19,6,1,3,-5,-11,69,60,41,30.47,29.74,24,12,38,3.37
2014-1-28,5,-2,-11,-6,-16,-23,65,50,33,30.51,30.34,16,8,22,0.00
2014-1-29,22,9,-2,-1,-9,-16,57,44,27,30.34,30.19,20,8,31,0.06
2014-1-30,31,23,18,24,7,-3,80,49,38,30.20,29.82,23,12,40,0.00
2014-1-31,24,23,23,17,15,14,75,70,66,29.93,29.90,2,0,2,0.00
2014-2-1,32,28,23,27,23,17,86,82,76,29.90,29.63,4,1,8,0.00
2014-2-2,26,22,9,20,13,0,78,67,57,30.09,29.83,10,2,17,0.00
2014-2-3,30,12,-1,11,0,-11,73,58,38,30.18,30.07,8,2,12,0.00
2014-2-4,26,16,3,14,4,-6,77,60,35,30.22,29.90,7,2,13,0.00
2014-2-5,26,21,19,16,12,7,80,69,45,30.20,29.78,8,5,17,0.00
2014-2-6,19,9,-2,8,-3,-16,70,57,46,30.20,30.14,16,8,23,0.00
2014-2-7,14,6,-2,-5,-10,-14,62,49,34,30.17,30.11,19,9,27,0.00
2014-2-8,18,11,5,7,-1,-10,71,56,40,30.13,29.94,9,3,14,0.00
2014-2-9,19,15,14,8,5,1,74,64,51,30.03,29.88,15,6,21,0.00
2014-2-10,16,11,4,5,-2,-6,67,57,45,30.22,30.02,13,7,17,0.00
2014-2-11,27,9,-3,2,-6,-14,64,51,28,30.31,30.21,8,3,11,0.00
2014-2-12,28,12,-4,3,-5,-15,66,48,28,30.21,29.84,7,2,13,0.00
2014-2-13,32,21,9,21,4,-6,74,48,30,29.91,29.41,21,4,30,0.04
2014-2-14,27,22,20,16,13,10,75,66,58,30.22,29.86,19,7,30,0.02
2014-2-15,31,20,15,16,7,-100,77,60,42,30.43,30.22,11,-12,15,0.01
2014-2-16,29,20,10,18,11,1,75,68,54,30.62,30.26,11,3,18,0.00
2014-2-17,25,20,16,20,12,6,83,71,54,30.64,29.65,27,7,27,0.08
2014-2-18,51,36,23,28,22,15,77,57,34,29.97,29.65,23,13,28,0.17
2014-2-19,48,37,33,31,19,-100,83,59,40,30.00,29.61,14,-50,17,0.00
2014-2-20,52,34,33,51,16,-100,97,70,65,29.99,29.29,38,-105,39,0.52
2014-2-21,38,32,31,30,11,-100,75,53,30,29.79,29.40,44,-51,44,0.57
2014-2-22,36,20,26,19,-29,-100,54,28,10,30.02,29.78,60,-358,60,0.00
2014-2-23,30,15,22,13,-32,-100,60,32,39,30.16,30.00,26,-370,26,0.00
2014-2-24,26,21,18,9,5,2,57,49,36,30.22,30.13,27,13,27,0.02
2014-2-25,22,20,14,12,5,-4,67,53,43,30.17,30.08,22,9,22,0.63
2014-2-26,17,12,9,2,-6,-15,64,43,27,30.14,29.62,30,15,30,0.24
2014-2-27,20,10,-3,8,-3,-14,72,54,36,30.17,29.57,31,12,34,2.65
2014-2-28,27,12,-4,6,-6,-15,59,44,25,30.23,29.99,19,6,21,0.00
2014-3-1,28,23,15,21,11,6,77,63,42,30.28,29.99,11,4,11,0.00
2014-3-2,23,14,5,8,2,-7,73,58,43,30.37,30.24,13,5,14,0.00
2014-3-3,26,8,-7,-5,-11,-20,59,42,22,30.46,30.35,11,3,11,0.02
2014-3-4,31,16,4,4,-4,-10,56,41,25,30.36,30.17,11,4,12,0.00
2014-3-5,19,19,16,7,4,2,57,53,50,30.43,30.22,8,2,8,0.00
2014-3-6,43,24,11,14,5,-1,63,46,27,30.43,30.10,13,5,14,0.00
2014-3-7,52,34,16,30,16,7,73,51,24,30.10,29.88,16,6,16,0.00
2014-3-8,39,30,19,31,22,13,85,73,58,30.23,29.93,11,5,13,0.04
2014-3-9,40,28,14,31,18,7,80,66,44,30.22,29.82,27,10,29,0.00
2014-3-10,54,46,40,36,31,30,68,58,46,29.83,29.62,25,13,27,0.04
2014-3-11,54,42,36,39,32,-100,88,70,45,29.73,29.65,10,-2,11,0.01
2014-3-12,37,27,14,34,19,4,91,74,53,30.06,29.60,17,4,18,0.12
2014-3-13,35,19,-1,24,7,-12,71,60,48,30.13,29.88,20,6,22,0.00
2014-3-14,52,43,35,33,29,24,70,58,44,29.88,29.57,38,18,38,0.20
2014-3-15,40,35,29,30,23,15,72,61,49,30.25,29.81,21,9,24,0.00
2014-3-16,30,23,15,19,1,-8,65,39,27,30.34,30.15,16,9,17,0.00
2014-3-17,40,24,10,16,5,-4,59,44,24,30.15,29.82,14,6,14,0.00
2014-3-18,50,37,24,34,24,14,70,60,45,29.94,29.73,19,6,20,0.00
2014-3-19,45,41,35,43,36,27,92,84,69,29.92,29.58,24,10,26,0.45
2014-3-20,46,36,29,29,24,19,72,61,42,30.03,29.92,21,10,22,0.00
2014-3-21,52,40,28,42,30,20,86,69,53,30.03,29.67,23,6,23,0.07
2014-3-22,49,35,27,38,27,16,82,71,62,30.26,29.72,21,8,24,0.01
2014-3-23,29,24,16,16,8,0,66,50,30,30.39,30.26,18,5,18,0.00
2014-3-24,34,24,14,15,5,-5,69,47,22,30.35,30.07,17,6,18,0.00
2014-3-25,29,25,21,20,10,0,81,53,31,30.18,29.95,24,9,24,0.00
2014-3-26,40,28,14,14,8,1,76,45,27,30.31,30.04,17,6,17,0.00
2014-3-27,43,38,34,37,23,10,85,58,32,30.04,29.67,25,13,28,0.05
2014-4-4,37,37,35,32,29,28,83,74,69,29.89,29.71,28,20,33,0.00
2014-4-5,51,39,33,28,22,14,74,55,24,30.19,29.89,30,8,30,0.00
2014-4-6,59,43,28,33,22,14,69,45,25,30.18,29.97,14,4,15,0.00
2014-4-7,57,44,36,41,31,25,86,63,31,29.97,29.58,12,3,14,0.04
2014-4-8,55,43,36,39,35,32,94,74,51,29.89,29.58,15,6,15,0.00
2014-4-9,62,47,29,40,32,25,99,61,29,30.02,29.88,21,6,21,0.00
2014-4-10,65,55,43,45,39,33,85,55,43,29.92,29.70,32,12,32,0.00
2014-4-11,69,54,35,44,27,18,97,47,15,30.04,29.89,15,3,17,0.00
2014-4-12,78,64,52,55,41,22,62,44,25,30.04,29.73,32,9,32,0.00
2014-4-13,72,64,58,62,56,50,95,74,61,29.80,29.55,25,10,28,0.08
2014-4-14,68,43,28,61,39,27,99,87,73,29.93,29.38,31,13,31,0.08
2014-4-15,38,30,26,27,14,4,96,52,26,30.22,29.91,22,8,23,0.00
2014-4-16,51,38,26,27,18,12,62,45,28,30.35,30.20,21,8,24,0.00
2014-4-17,64,50,37,40,32,26,67,51,32,30.24,30.18,21,8,23,0.00
2014-4-18,57,48,34,44,37,22,88,68,53,30.34,30.22,15,4,16,0.00
2014-4-19,69,49,30,40,33,24,86,57,28,30.39,30.25,15,5,17,0.00
2014-4-20,81,60,42,38,32,-100,63,38,17,30.29,30.05,14,2,17,0.00
2014-4-21,79,65,58,59,44,28,99,50,26,30.05,29.80,30,8,30,0.43
2014-4-22,60,47,39,59,37,30,99,70,49,30.04,29.76,26,10,26,0.01
2014-4-23,55,43,33,36,31,27,84,63,42,30.15,30.03,17,6,17,0.00
2014-4-24,61,53,42,37,29,21,68,42,23,30.08,29.75,29,8,29,0.00
2014-4-25,67,52,43,45,41,30,98,70,36,29.83,29.63,24,7,24,0.28
2014-4-26,54,46,39,43,36,32,88,68,57,30.03,29.81,16,6,19,0.00
2014-4-27,64,51,40,39,33,25,88,54,31,30.09,29.90,29,12,29,0.05
2014-4-28,60,52,48,48,40,32,95,64,50,29.92,29.62,28,16,30,0.76
2014-4-29,74,58,48,57,49,40,99,75,31,29.68,29.47,31,9,173,0.05
2014-4-30,61,52,43,50,46,37,99,79,57,29.82,29.68,18,8,20,0.07
2014-5-1,50,45,42,46,42,38,97,90,77,29.81,29.72,24,12,24,0.19
2014-5-2,53,48,46,47,45,43,97,89,72,29.82,29.77,23,11,24,0.00
2014-5-3,64,53,48,47,42,34,95,70,35,29.85,29.64,25,11,30,0.06
2014-5-4,56,49,39,43,34,24,78,56,31,30.09,29.84,17,7,19,0.00
2014-5-5,66,52,39,39,35,31,81,56,28,30.08,29.92,14,5,14,0.00
2014-5-6,71,56,39,41,38,33,89,54,32,30.04,29.91,17,6,20,0.00
2014-5-7,81,64,53,56,46,36,70,53,42,29.95,29.82,19,9,21,0.00
2014-5-8,91,75,57,64,58,52,84,59,31,29.91,29.82,24,9,24,0.00
2014-5-9,78,69,56,65,60,45,98,74,48,29.87,29.70,34,14,34,0.25
2014-5-10,74,61,45,53,44,35,99,60,25,30.00,29.87,20,6,21,0.00
2014-5-11,86,69,52,65,52,42,92,58,36,30.01,29.88,23,5,28,0.18
2014-5-12,85,74,62,71,67,61,98,81,63,29.97,29.88,23,8,27,0.01
2014-5-13,77,64,53,70,62,49,99,91,72,30.13,29.85,21,9,24,0.70
2014-5-14,56,50,45,50,46,42,99,85,64,30.17,29.91,9,4,9,0.30
2014-5-15,50,44,35,50,41,34,99,89,59,30.06,29.78,21,7,22,0.14
2014-5-16,44,39,32,40,36,32,99,90,76,30.08,30.01,8,2,9,0.07
2014-5-17,60,48,36,43,34,25,99,65,28,30.18,30.06,17,6,18,0.01
2014-5-18,72,57,43,41,37,33,76,51,27,30.27,30.18,19,7,19,0.00
2014-5-19,72,61,50,52,40,36,80,48,29,30.27,30.05,18,6,20,0.01
2014-5-20,86,70,60,67,56,-100,82,61,47,30.08,29.83,17,5,18,3.76
2014-5-21,86,72,63,70,64,51,99,77,34,29.92,29.83,14,5,14,0.63
2014-5-22,70,60,48,54,49,43,98,70,43,30.14,29.92,12,4,14,0.00
2014-5-23,65,55,45,51,47,44,99,76,51,30.22,30.12,17,4,17,0.00
2014-5-24,78,60,42,57,48,42,99,70,35,30.24,30.14,17,3,17,0.00
2014-5-25,86,68,50,56,51,48,99,61,29,30.17,30.05,13,3,14,0.00
2014-5-26,95,73,57,68,60,52,99,65,36,30.09,29.92,18,4,18,0.19
2014-5-27,85,73,64,72,67,63,99,84,55,30.01,29.88,21,7,21,0.18
2014-5-28,79,64,52,65,60,52,99,88,54,30.06,29.93,14,3,14,0.00
2014-5-29,87,70,58,64,58,52,99,71,30,30.14,30.05,9,3,9,0.00
2014-5-30,83,63,58,59,44,-100,92,62,41,31.91,30.12,5,-74,5,0.00
2014-5-31,95,72,56,62,56,53,99,65,27,31.96,31.83,11,1,11,0.00
2014-6-1,93,77,63,67,57,-100,70,53,31,31.88,31.67,23,1,23,0.00
2014-6-2,84,76,68,72,68,65,97,76,58,31.73,31.57,25,10,48,0.07
2014-6-3,86,73,60,70,57,44,89,62,27,31.74,31.59,26,8,26,0.00
2014-6-4,72,62,54,62,57,51,99,84,64,31.69,31.57,9,2,9,0.26
2014-6-5,77,62,47,55,48,40,99,67,28,31.75,31.64,16,2,16,0.00
2014-6-6,85,65,47,58,47,36,99,61,20,31.78,31.70,11,2,14,0.00
2014-6-7,90,70,51,65,54,48,99,63,30,31.79,31.59,12,2,12,0.00
2014-6-8,71,63,53,64,58,52,99,85,66,31.77,31.56,17,4,17,0.27
2014-6-9,84,67,52,62,57,19,99,75,43,31.77,31.67,11,2,11,0.00
2014-6-10,76,67,59,66,61,58,99,84,55,31.69,31.54,6,2,6,0.06
2014-6-11,79,67,59,70,64,19,99,93,64,31.54,31.44,14,4,15,0.53
2014-6-12,80,66,58,66,61,57,99,85,58,31.58,31.48,18,6,22,0.00
2014-6-13,77,62,50,58,49,19,89,64,16,31.80,31.57,18,5,18,0.00
2014-6-14,86,65,48,51,47,39,98,58,24,31.89,31.76,9,3,12,0.00
2014-6-15,85,71,56,69,56,19,82,61,16,31.81,31.62,18,6,24,0.01
2014-6-16,95,79,68,70,65,60,93,66,38,31.84,31.70,15,5,15,0.01
2014-6-17,93,81,72,72,69,63,95,69,42,31.71,31.57,26,8,26,0.07
2014-6-18,86,75,64,76,71,63,99,87,65,31.77,31.64,14,4,22,0.27
2014-6-19,85,75,63,71,67,62,99,80,57,31.86,31.75,7,3,8,0.00
2014-6-20,81,72,65,73,67,64,99,86,66,31.83,31.67,17,4,17,0.01
2014-6-21,87,71,62,70,66,62,99,86,54,31.77,31.61,19,3,19,0.22
2014-6-22,87,73,63,71,67,62,99,83,56,31.69,31.62,11,2,12,0.22
2014-6-23,87,72,68,75,69,-100,99,93,65,31.66,31.56,17,-3,17,0.58
2014-6-24,83,73,69,72,70,68,99,90,66,31.65,31.60,9,3,10,0.89
2014-6-25,76,68,62,70,66,61,99,93,74,31.79,31.64,11,3,12,0.00
2014-6-26,81,66,60,69,63,60,99,91,62,31.85,31.77,8,2,8,0.00
2014-6-27,90,75,61,71,65,60,99,76,44,31.84,31.76,12,2,12,0.00
2014-6-28,88,77,69,74,70,66,91,78,55,31.85,31.72,15,4,15,0.00
2014-6-29,88,79,74,73,71,66,93,76,53,31.76,31.66,17,8,18,0.00
2014-6-30,89,78,72,75,72,67,97,82,54,31.73,31.51,32,7,34,0.05
2014-7-1,83,78,71,65,63,60,80,62,47,31.53,31.49,21,9,24,0.05
2014-7-2,72,67,59,66,59,52,95,76,54,31.76,31.52,17,7,19,0.00
2014-7-3,77,63,53,56,52,42,99,71,32,31.94,31.75,16,4,16,0.05
2014-7-4,82,66,52,59,53,47,99,68,31,32.06,31.94,9,2,32,0.00
2014-7-5,78,73,56,62,56,51,91,58,44,32.05,31.83,11,4,13,0.00
2014-7-6,85,74,62,74,66,58,90,77,67,31.84,31.51,21,6,57,0.00
2014-7-7,91,77,68,73,69,63,98,80,42,31.52,31.45,40,8,40,0.02
2014-7-8,81,74,67,73,65,60,99,76,51,31.56,31.34,22,7,24,0.18
2014-7-9,84,69,60,64,59,54,98,71,41,31.81,31.56,11,3,11,0.00
2014-7-10,82,67,54,59,54,47,99,70,32,31.95,31.81,10,2,10,0.00
2014-7-11,84,68,54,67,58,53,99,74,40,31.99,31.86,11,2,11,0.00
2014-7-12,80,74,68,73,68,62,94,83,68,31.91,31.63,17,4,17,0.00
2014-7-13,85,76,68,76,66,59,99,74,45,31.70,31.62,25,6,25,0.70
2014-7-14,80,70,62,69,64,56,99,82,46,31.65,31.54,9,2,9,0.07
2014-7-15,73,62,58,59,55,52,95,77,53,31.70,31.56,25,5,25,0.00
2014-7-16,73,61,51,59,54,51,99,80,51,31.80,31.70,14,2,14,0.00
2014-7-17,84,64,49,58,51,46,99,70,29,31.90,31.79,9,2,10,0.00
2014-7-18,86,68,53,60,54,49,99,68,32,31.97,31.87,14,2,14,0.00
2014-7-19,86,68,54,64,58,53,99,74,43,31.87,31.77,9,2,12,0.00
2014-7-20,88,71,58,64,60,57,99,72,40,31.85,31.78,6,1,7,0.00
2014-7-21,92,74,61,69,64,60,99,74,42,31.88,31.79,12,3,14,0.00
2014-7-22,90,77,66,74,69,64,98,76,51,31.85,31.69,16,6,19,0.00
2014-7-23,79,67,60,74,64,57,99,89,67,31.87,31.71,17,4,27,0.13
2014-7-24,81,65,54,61,55,51,98,73,37,31.92,31.81,8,2,12,0.00
2014-7-25,77,64,52,62,57,50,98,79,49,31.86,31.69,14,3,14,0.00
2014-7-26,82,69,59,70,65,58,99,86,69,31.71,31.55,9,2,11,0.00
2014-7-27,84,73,64,75,67,57,99,82,49,31.59,31.42,21,6,23,0.00
2014-7-28,65,61,53,61,55,49,93,82,60,31.82,31.58,14,4,14,0.00
2014-7-29,79,63,50,61,55,49,99,78,44,31.80,31.73,13,4,15,0.00
2014-7-30,79,65,55,65,59,54,99,82,51,31.79,31.73,13,3,16,0.04
2014-7-31,83,69,55,64,59,55,99,75,44,31.80,31.76,16,5,48,0.00
2014-8-1,86,71,62,66,62,57,98,76,44,31.87,31.79,11,3,11,0.00
2014-8-2,86,66,56,66,60,56,99,84,45,31.91,31.83,8,1,8,0.00
2014-8-3,80,74,67,67,66,63,96,78,56,31.84,31.82,4,1,4,0.00
2014-8-4,87,74,63,69,65,61,99,77,45,31.88,31.79,11,3,12,0.05
2014-8-5,84,71,64,71,66,62,99,87,58,31.83,31.77,15,3,18,0.33
2014-8-6,88,71,61,70,62,52,99,77,33,31.84,31.76,8,1,10,0.00
2014-8-7,88,71,57,65,60,56,99,72,37,31.88,31.79,10,2,14,0.00
2014-8-8,90,71,58,64,59,55,99,71,32,31.88,31.80,9,2,13,0.00
2014-8-9,88,72,59,63,60,53,99,71,36,31.87,31.80,10,2,10,0.00
2014-8-10,89,74,60,71,65,57,96,76,47,31.83,31.70,7,2,8,0.00
2014-8-11,83,72,67,72,68,66,99,90,66,31.72,31.51,13,2,13,0.50
2014-8-12,68,63,59,67,62,57,99,97,88,31.70,31.46,14,3,16,0.24
2014-8-13,84,66,55,65,57,49,99,77,43,31.78,31.69,17,3,17,0.00
2014-8-14,74,61,50,57,51,44,99,72,37,31.86,31.77,8,2,10,0.00
2014-8-15,79,61,45,58,49,42,99,72,29,31.85,31.73,12,3,13,0.00
2014-8-16,83,69,57,69,61,53,90,77,62,31.73,31.65,15,6,17,0.00
2014-8-17,86,73,64,72,68,63,99,86,60,31.73,31.68,11,3,11,0.00
2014-8-18,85,72,62,71,67,62,99,87,62,31.70,31.56,9,2,11,0.00
2014-8-19,83,74,67,73,69,66,99,88,69,31.58,31.46,40,6,40,0.25
2014-8-20,88,74,66,70,68,64,99,83,50,31.71,31.51,16,4,16,0.07
2014-8-21,76,72,68,75,70,67,98,94,84,31.76,31.67,8,2,9,1.42
2014-8-22,95,77,70,76,73,69,99,89,51,31.75,31.65,11,3,12,0.00
2014-8-23,89,76,69,76,73,69,99,89,60,31.79,31.68,8,2,8,0.00
2014-8-24,91,77,68,75,70,66,94,80,57,31.80,31.74,12,3,12,0.00
2014-8-25,91,76,70,78,71,66,98,86,61,31.83,31.73,27,4,27,0.00
2014-8-26,84,72,66,74,69,66,99,91,70,31.92,31.77,17,2,20,0.02
2014-8-27,82,69,61,66,62,57,99,81,47,31.90,31.85,9,2,10,0.00
2014-8-28,88,69,56,65,60,55,99,77,40,31.90,25.95,8,2,8,0.00
2014-8-29,85,72,66,75,68,62,97,85,67,31.82,31.68,17,4,17,0.12
2014-8-30,85,75,69,74,71,68,99,88,66,31.69,31.59,22,7,27,0.60
2014-8-31,89,75,68,73,70,67,99,85,52,31.72,31.64,11,4,12,0.00
2014-9-1,84,75,72,76,71,67,99,87,60,31.67,31.51,20,8,22,0.22
2014-9-2,87,74,63,70,66,58,99,78,43,31.72,31.59,14,4,14,0.00
2014-9-3,96,74,62,69,63,53,99,72,28,31.80,31.72,11,3,11,0.00
2014-9-4,86,75,68,73,68,62,99,80,62,31.85,31.70,16,6,20,0.24
2014-9-5,88,77,66,77,72,63,99,84,65,31.78,31.64,28,7,42,0.25
2014-9-6,77,66,54,66,58,49,99,78,41,31.93,31.78,11,2,13,0.07
2014-9-7,82,63,52,64,54,51,99,74,41,31.98,31.89,9,2,9,0.00
2014-9-8,85,64,54,61,55,53,99,71,40,31.93,31.78,107,3,107,0.19
2014-9-9,85,62,59,67,55,57,96,70,55,31.80,31.67,14,3,14,0.19
2014-9-10,80,68,60,74,65,57,99,88,78,31.67,31.33,24,8,24,0.27
2014-9-11,60,48,52,57,45,50,99,76,77,31.99,31.56,14,4,14,0.02
2014-9-12,62,52,47,52,47,46,99,81,58,32.06,31.94,6,2,7,0.01
2014-9-13,67,50,45,50,44,43,99,76,49,32.08,31.94,13,3,14,0.15
2014-9-14,70,38,42,51,32,41,99,53,43,32.09,31.93,14,2,14,1.51
2014-9-15,63,48,46,54,45,46,99,78,68,31.94,31.82,11,3,12,0.04
2014-9-16,72,46,32,56,38,12,99,60,40,31.95,31.85,13,2,13,0.00
2014-9-17,73,51,42,52,42,42,99,67,37,31.85,31.74,13,2,13,0.00
2014-9-18,78,57,43,56,48,42,99,74,42,31.92,31.78,7,1,8,0.00
2014-9-19,78,62,52,56,52,49,98,74,40,31.96,31.75,15,4,17,0.00
2014-9-20,81,67,59,70,60,49,99,79,61,31.74,31.52,21,9,23,0.05
2014-9-21,69,61,53,68,56,47,99,82,67,31.86,31.43,22,10,32,0.11
2014-9-22,66,54,42,50,45,39,99,75,50,32.02,31.85,12,3,14,0.00
2014-9-23,80,58,44,53,48,43,99,75,33,32.10,32.02,10,2,11,0.00
2014-9-24,84,61,47,56,51,47,99,76,34,32.15,32.03,9,2,10,0.00
2014-9-25,85,64,53,60,55,51,97,76,37,32.06,31.98,6,1,6,0.00
2014-9-26,94,66,51,60,55,50,99,73,28,32.04,31.97,8,1,8,0.00
2014-9-27,88,66,52,63,58,51,99,78,35,32.02,31.92,6,1,7,0.00
2014-9-28,86,65,52,62,56,51,99,77,38,31.94,31.82,9,1,11,0.00
2014-9-29,82,64,49,61,55,49,99,78,40,31.82,31.66,11,3,11,0.00
2014-9-30,61,54,51,56,49,46,96,83,59,31.79,31.71,9,3,9,0.00
2014-10-1,76,61,53,54,52,50,94,74,45,31.81,31.69,12,3,14,0.00
2014-10-2,76,66,59,68,61,52,99,83,71,31.72,31.48,12,3,12,0.21
2014-10-3,111,56,47,65,54,39,99,86,62,31.50,31.19,109,11,109,1.29
2014-10-4,49,44,38,45,37,32,99,78,62,31.49,31.41,23,14,31,0.60
2014-10-5,58,44,41,42,33,31,87,59,40,31.49,31.40,25,9,25,0.05
2014-10-6,63,49,47,51,39,37,95,63,40,31.44,31.30,24,8,25,0.01
2014-10-7,68,50,46,54,44,39,96,71,59,31.56,31.39,19,6,19,0.00
2014-10-8,65,52,52,51,38,31,87,53,31,31.77,31.55,24,9,29,0.00
2014-10-9,62,42,38,46,32,31,98,54,33,31.88,31.73,14,3,16,0.00
2014-10-10,62,44,36,47,36,35,99,69,43,31.93,31.86,11,2,11,0.00
2014-10-11,69,46,33,46,34,28,99,67,24,32.00,31.90,8,1,11,0.00
2014-10-12,68,46,36,46,35,33,99,61,34,31.93,31.66,14,3,17,0.00
2014-10-13,75,60,53,68,57,50,99,84,74,31.66,31.39,17,4,18,0.05
2014-10-14,73,63,58,66,60,54,98,87,64,31.41,31.26,19,5,24,0.38
2014-10-15,64,50,55,56,46,53,99,75,70,31.56,31.40,11,2,11,0.01
2014-10-16,60,50,49,57,48,49,99,83,83,31.58,31.47,14,4,14,0.02
2014-10-17,63,56,51,54,51,46,97,85,67,31.56,31.31,27,12,27,0.01
2014-10-18,51,48,45,47,43,37,97,83,73,31.92,31.56,19,7,19,0.08
2014-10-19,56,45,32,44,38,31,99,77,52,31.97,31.69,16,5,17,0.00
2014-10-20,59,52,48,51,48,44,99,86,75,31.72,31.55,16,7,16,0.05
2014-10-21,57,47,37,49,43,36,99,83,65,32.00,31.70,11,3,12,0.13